TimeMST,TemperatureF,Dew PointF,Humidity,Sea Level PressureIn,VisibilityMPH,Wind Direction,Wind SpeedMPH,Gust SpeedMPH,PrecipitationIn,Events,Conditions,WindDirDegrees,DateUTC
12:54 AM,15.1,10.9,84,30.18,10.0,East,8.1,-,N/A,,Partly Cloudy,90,2005-01-02 07:54:00
1:54 AM,16.0,12.9,88,30.17,10.0,ESE,3.5,-,N/A,,Mostly Cloudy,120,2005-01-02 08:54:00
2:54 AM,15.1,12.0,88,30.20,10.0,East,4.6,-,N/A,,Partly Cloudy,100,2005-01-02 09:54:00
3:54 AM,15.1,12.0,88,30.23,9.0,ESE,8.1,-,N/A,,Clear,110,2005-01-02 10:54:00
4:54 AM,16.0,12.9,88,30.25,9.0,ESE,3.5,-,N/A,,Clear,110,2005-01-02 11:54:00
5:54 AM,15.1,12.0,88,30.28,9.0,Calm,Calm,-,N/A,,Clear,0,2005-01-02 12:54:00
6:54 AM,12.9,10.0,88,30.31,8.0,Calm,Calm,-,N/A,,Clear,0,2005-01-02 13:54:00
7:54 AM,15.1,12.0,88,30.32,5.0,Calm,Calm,-,N/A,,Clear,0,2005-01-02 14:54:00
8:54 AM,21.9,19.0,89,30.31,5.0,Calm,Calm,-,N/A,,Clear,0,2005-01-02 15:54:00
9:54 AM,25.0,21.9,88,30.32,6.0,South,3.5,-,N/A,,Clear,170,2005-01-02 16:54:00
10:54 AM,30.0,24.1,79,30.30,7.0,SE,6.9,-,N/A,,Clear,140,2005-01-02 17:54:00
11:54 AM,35.1,25.0,67,30.24,9.0,ESE,6.9,-,N/A,,Clear,120,2005-01-02 18:54:00
12:54 PM,39.0,24.1,55,30.20,10.0,ESE,9.2,-,N/A,,Clear,110,2005-01-02 19:54:00
1:54 PM,39.9,24.1,53,30.17,10.0,East,10.4,-,N/A,,Clear,100,2005-01-02 20:54:00
2:54 PM,39.9,25.0,55,30.16,10.0,ESE,8.1,-,N/A,,Clear,120,2005-01-02 21:54:00
3:54 PM,36.0,23.0,59,30.19,10.0,SE,6.9,-,N/A,,Clear,130,2005-01-02 22:54:00
4:54 PM,33.1,21.9,64,30.19,10.0,East,4.6,-,N/A,,Clear,100,2005-01-02 23:54:00
5:54 PM,32.0,23.0,69,30.21,10.0,East,5.8,-,N/A,,Clear,100,2005-01-03 00:54:00
6:54 PM,30.9,21.9,69,30.23,10.0,ESE,8.1,-,N/A,,Clear,120,2005-01-03 01:54:00
7:54 PM,30.9,21.9,69,30.23,10.0,East,10.4,-,N/A,,Clear,90,2005-01-03 02:54:00
8:54 PM,30.0,21.9,72,30.23,10.0,ESE,12.7,-,N/A,,Clear,110,2005-01-03 03:54:00
9:14 PM,30.2,21.2,69,30.12,10.0,ESE,11.5,-,N/A,,Mostly Cloudy,110,2005-01-03 04:14:00
9:54 PM,30.0,21.9,72,30.22,10.0,ESE,13.8,-,N/A,,Overcast,110,2005-01-03 04:54:00
10:54 PM,27.0,19.9,75,30.23,10.0,ENE,9.2,-,N/A,,Overcast,70,2005-01-03 05:54:00
11:23 PM,24.8,17.6,74,30.15,10.0,ENE,9.2,-,N/A,,Overcast,60,2005-01-03 06:23:00
11:54 PM,23.0,17.1,78,30.23,10.0,ENE,10.4,-,N/A,,Overcast,60,2005-01-03 06:54:00